Starlink 31415

operational
NORAD ID: 59419 Int'l Des: 2024-064 Owner: SPXS Country: US Constellation: starlink
LEOCIRCULAR

About Starlink 31415

Description loading...

Live Position

Loading 3D Globe...

Upcoming Passes

Altitude History

Altitude vs Time

uPlot chart will show altitude changes over time

Two-Line Element Set

1 59419U 24064X 26061.44861516 -.00000100 00000-0 58857-5 0 9994
2 59419 43.0022 97.4703 0001815 287.8833 72.1821 15.27575013108113
Epoch: Mar 2, 2026 • Age: 31 hours

Current Status

Altitude 484.8 km
Velocity 7.62 km/s
Sub-Earth Point -13.80°S, 170.25°E
Launch Date Apr 5, 2024
Age 1.9 years
Type internet

Technical Details

Classification Payload
Mass 730.00 kg
Dry Mass 700.00 kg
Total Mass 730.00 kg
Length 0.30 m
Diameter 4.10 m
Span 29.00 m
Shape Box + pan
Manufacturer SPXS
Bus Type Starlink V2M
Phase Status In Orbit
Owner/State SPXS/US

Large Constellations

Loading constellations...